Lakeview AWS, OR

9:32 PM PDT on March 24, 2017 (GMT -0700)
Lake County

Weather History for KLKV - February, 2014

Change the Weather History Date:

Saturday, February 8, 2014

  Actual Average Record
Temperature  
Mean Temperature 37 °F -  
Max Temperature 39 °F 42 °F 60 °F (1970)
Min Temperature 35 °F 22 °F -4 °F (1933)
Degree Days  
Heating Degree Days 28    
Moisture  
Dew Point 34 °F    
Average Humidity 87    
Maximum Humidity 93    
Minimum Humidity 75    
Precipitation  
Precipitation 0.01 in - - ()
Sea Level Pressure  
Sea Level Pressure 29.91 in    
Wind  
Wind Speed 22 mph (South)    
Max Wind Speed 34 mph    
Max Gust Speed 44 mph    
Visibility 10 miles    
Events      
Averages and records for this station are not official NWS values.
T = Trace of Precipitation, MM = Missing Value Source: NWS Daily Summary

Daily Weather History Graph

Daily Weather History Graph

Search for Another Location

Airport or City:

Trip Planner

Search our weather history database for the weather conditions in past years. The results will help you decide how hot, cold, wet, or windy it might be!

Date:

Astronomy

Feb. 08, 2014 Rise Set
Actual Time 7:06 AM PST 5:25 PM PST
Civil Twilight 6:37 AM PST 5:54 PM PST
Nautical Twilight 6:04 AM PST 6:27 PM PST
Astronomical Twilight 5:31 AM PST 7:00 PM PST
Moon 12:21 PM PST (2/8) 2:25 AM PST (2/8)
Length of Visible Light 11h 17m
Length of Day
10h 18m
Waxing Gibbous, 69% of the Moon is Illuminated
Feb 8
Waxing Gibbous
Feb 14
Full
Feb 22
Last Quarter
Mar 1
New
Mar 8
First Quarter

Hourly Weather History & Observations

Time (PST) Temp. Windchill Dew Point Humidity Pressure Visibility Wind Dir Wind Speed Gust Speed Precip Events Conditions
12:15 AM 37.4 °F 24.2 °F 30.2 °F 75% 29.79 in 10.0 mi SW 34.5 mph 40.3 mph N/A   Overcast
12:35 AM 37.4 °F 24.6 °F 30.2 °F 75% 29.80 in 10.0 mi SSW 32.2 mph 39.1 mph N/A   Overcast
12:55 AM 37.4 °F 25.9 °F 30.2 °F 75% 29.81 in 10.0 mi SW 25.3 mph 36.8 mph N/A   Mostly Cloudy
1:15 AM 37.4 °F 24.6 °F 32.0 °F 81% 29.81 in 10.0 mi SW 32.2 mph 39.1 mph N/A   Mostly Cloudy
1:35 AM 37.4 °F 25.4 °F 32.0 °F 81% 29.82 in 10.0 mi SW 27.6 mph 40.3 mph N/A   Mostly Cloudy
1:55 AM 37.4 °F 24.6 °F 32.0 °F 81% 29.83 in 10.0 mi SW 32.2 mph 43.7 mph N/A   Overcast
2:15 AM 37.4 °F 25.0 °F 32.0 °F 81% 29.84 in 10.0 mi SW 29.9 mph 36.8 mph N/A   Mostly Cloudy
2:35 AM 37.4 °F 25.0 °F 32.0 °F 81% 29.84 in 10.0 mi SSW 29.9 mph 40.3 mph N/A   Mostly Cloudy
2:55 AM 37.4 °F 25.2 °F 32.0 °F 81% 29.85 in 10.0 mi SW 28.8 mph 43.7 mph N/A   Overcast
3:15 AM 37.4 °F 25.0 °F 32.0 °F 81% 29.85 in 10.0 mi SSW 29.9 mph 36.8 mph N/A   Overcast
3:35 AM 37.4 °F 26.1 °F 32.0 °F 81% 29.87 in 10.0 mi SW 24.2 mph 36.8 mph N/A   Mostly Cloudy
3:55 AM 37.4 °F 25.2 °F 32.0 °F 81% 29.87 in 10.0 mi SW 28.8 mph 39.1 mph N/A   Mostly Cloudy
4:15 AM 37.4 °F 25.2 °F 32.0 °F 81% 29.87 in 10.0 mi SW 28.8 mph 38.0 mph N/A   Mostly Cloudy
4:35 AM 37.4 °F 25.9 °F 32.0 °F 81% 29.88 in 10.0 mi SSW 25.3 mph 33.4 mph N/A   Overcast
4:55 AM 37.4 °F 25.9 °F 30.2 °F 75% 29.88 in 10.0 mi SSW 25.3 mph 31.1 mph N/A   Partly Cloudy
5:15 AM 37.4 °F 25.4 °F 30.2 °F 75% 29.88 in 10.0 mi SSW 27.6 mph 36.8 mph N/A   Clear
5:35 AM 37.4 °F 26.6 °F 30.2 °F 75% 29.88 in 10.0 mi SSW 21.9 mph 32.2 mph N/A   Clear
5:55 AM 37.4 °F 27.2 °F 32.0 °F 81% 29.88 in 10.0 mi SSW 19.6 mph 27.6 mph N/A   Clear
6:15 AM 37.4 °F 26.1 °F 32.0 °F 81% 29.88 in 10.0 mi SSW 24.2 mph 29.9 mph N/A   Partly Cloudy
6:35 AM 37.4 °F 26.1 °F 32.0 °F 81% 29.88 in 10.0 mi SSW 24.2 mph 31.1 mph N/A   Partly Cloudy
6:55 AM 37.4 °F 27.8 °F 32.0 °F 81% 29.90 in 10.0 mi SSW 17.3 mph 26.5 mph N/A   Partly Cloudy
7:15 AM 37.4 °F 27.8 °F 32.0 °F 81% 29.91 in 10.0 mi SSW 17.3 mph 23.0 mph N/A   Mostly Cloudy
7:35 AM 37.4 °F 28.2 °F 32.0 °F 81% 29.92 in 10.0 mi South 16.1 mph 25.3 mph N/A   Overcast
7:55 AM 37.4 °F 28.2 °F 33.8 °F 87% 29.92 in 10.0 mi SSE 16.1 mph 25.3 mph N/A   Overcast
8:15 AM 37.4 °F 26.9 °F 33.8 °F 87% 29.93 in 10.0 mi SSE 20.7 mph 29.9 mph N/A   Overcast
8:35 AM 37.4 °F 26.4 °F 33.8 °F 87% 29.92 in 10.0 mi SSE 23.0 mph 31.1 mph N/A   Overcast
8:55 AM 37.4 °F 26.6 °F 33.8 °F 87% 29.94 in 10.0 mi SSE 21.9 mph 31.1 mph N/A   Overcast
9:15 AM 39.2 °F 29.3 °F 33.8 °F 81% 29.94 in 10.0 mi SSE 20.7 mph 28.8 mph N/A   Overcast
9:35 AM 39.2 °F 30.5 °F 33.8 °F 81% 29.95 in 10.0 mi South 16.1 mph 26.5 mph N/A   Overcast
9:55 AM 39.2 °F 30.8 °F 33.8 °F 81% 29.94 in 10.0 mi South 15.0 mph 23.0 mph N/A   Overcast
10:15 AM 39.2 °F 30.8 °F 35.6 °F 87% 29.94 in 10.0 mi South 15.0 mph 23.0 mph N/A   Overcast
10:35 AM 37.4 °F 27.2 °F 35.6 °F 93% 29.94 in 10.0 mi South 19.6 mph - N/A   Overcast
10:55 AM 37.4 °F 28.9 °F 35.6 °F 93% 29.93 in 9.0 mi South 13.8 mph 25.3 mph N/A   Overcast
11:15 AM 37.4 °F 28.5 °F 33.8 °F 87% 29.93 in 10.0 mi SSE 15.0 mph 19.6 mph N/A   Overcast
11:35 AM 35.6 °F 26.2 °F 33.8 °F 93% 29.92 in 10.0 mi South 15.0 mph 19.6 mph N/A   Overcast
11:55 AM 35.6 °F 26.2 °F 33.8 °F 93% 29.93 in 10.0 mi South 15.0 mph - N/A   Overcast
12:15 PM 35.6 °F 27.1 °F 33.8 °F 93% 29.92 in 10.0 mi South 12.7 mph - N/A   Overcast
12:35 PM 35.6 °F 28.0 °F 33.8 °F 93% 29.92 in 10.0 mi South 10.4 mph - N/A   Overcast
12:55 PM 37.4 °F 29.3 °F 35.6 °F 93% 29.91 in 10.0 mi South 12.7 mph - N/A   Overcast
1:15 PM 37.4 °F 30.3 °F 35.6 °F 93% 29.90 in 10.0 mi South 10.4 mph - N/A   Overcast
1:35 PM 37.4 °F 28.9 °F 35.6 °F 93% 29.89 in 10.0 mi South 13.8 mph - N/A   Overcast
1:55 PM 37.4 °F 29.3 °F 35.6 °F 93% 29.91 in 9.0 mi South 12.7 mph - N/A   Overcast
2:15 PM 37.4 °F 30.8 °F 35.6 °F 93% 29.92 in 10.0 mi SSW 9.2 mph 16.1 mph N/A   Overcast
2:35 PM 37.4 °F 32.1 °F 35.6 °F 93% 29.92 in 10.0 mi South 6.9 mph - N/A   Overcast
2:55 PM 35.6 °F 29.2 °F 33.8 °F 93% 29.93 in 10.0 mi SSE 8.1 mph - N/A   Overcast
3:15 PM 35.6 °F 27.1 °F 33.8 °F 93% 29.93 in 6.0 mi South 12.7 mph - 0.01 in   Overcast
3:35 PM 35.6 °F 28.6 °F 33.8 °F 93% 29.93 in 10.0 mi SSE 9.2 mph - 0.01 in   Overcast
3:55 PM 37.4 °F 28.2 °F 35.6 °F 93% 29.92 in 10.0 mi SSE 16.1 mph - 0.01 in   Overcast
4:15 PM 37.4 °F 27.8 °F 33.8 °F 87% 29.90 in 10.0 mi SSE 17.3 mph - N/A   Overcast
4:35 PM 37.4 °F 27.5 °F 35.6 °F 93% 29.89 in 10.0 mi SSE 18.4 mph 27.6 mph N/A   Overcast
4:55 PM 39.2 °F 30.8 °F 35.6 °F 87% 29.90 in 10.0 mi SSE 15.0 mph 21.9 mph N/A   Overcast
5:15 PM 39.2 °F 31.2 °F 37.4 °F 93% 29.91 in 10.0 mi SSE 13.8 mph - N/A   Overcast
5:35 PM 39.2 °F 30.8 °F 37.4 °F 93% 29.91 in 10.0 mi SSE 15.0 mph - N/A   Overcast
5:55 PM 39.2 °F 31.2 °F 37.4 °F 93% 29.91 in 10.0 mi South 13.8 mph 19.6 mph N/A   Overcast
6:15 PM 39.2 °F 31.2 °F 37.4 °F 93% 29.91 in 10.0 mi South 13.8 mph - N/A   Overcast
6:35 PM 39.2 °F 30.8 °F 37.4 °F 93% 29.93 in 10.0 mi South 15.0 mph - N/A   Overcast
6:55 PM 39.2 °F 31.2 °F 37.4 °F 93% 29.92 in 10.0 mi South 13.8 mph - N/A   Overcast
7:15 PM 39.2 °F 31.2 °F 37.4 °F 93% 29.93 in 10.0 mi South 13.8 mph - N/A   Overcast
7:35 PM 39.2 °F 32.0 °F 37.4 °F 93% 29.94 in 10.0 mi South 11.5 mph 21.9 mph N/A   Overcast
7:55 PM 39.2 °F 31.6 °F 37.4 °F 93% 29.94 in 10.0 mi South 12.7 mph - N/A   Overcast
8:15 PM 39.2 °F 31.2 °F 37.4 °F 93% 29.95 in 10.0 mi South 13.8 mph - N/A   Overcast
8:35 PM 39.2 °F 30.8 °F 37.4 °F 93% 29.94 in 10.0 mi South 15.0 mph 19.6 mph N/A   Mostly Cloudy
8:55 PM 37.4 °F 28.5 °F 35.6 °F 93% 29.93 in 10.0 mi South 15.0 mph - N/A   Mostly Cloudy
9:15 PM 37.4 °F 28.9 °F 35.6 °F 93% 29.95 in 10.0 mi South 13.8 mph - N/A   Mostly Cloudy
9:35 PM 37.4 °F 29.3 °F 33.8 °F 87% 29.96 in 10.0 mi South 12.7 mph - N/A   Scattered Clouds
9:55 PM 37.4 °F 29.3 °F 33.8 °F 87% 29.98 in 10.0 mi South 12.7 mph - N/A   Mostly Cloudy
10:15 PM 37.4 °F 29.3 °F 33.8 °F 87% 29.98 in 10.0 mi South 12.7 mph - N/A   Mostly Cloudy
10:35 PM 37.4 °F 28.5 °F 35.6 °F 93% 29.98 in 10.0 mi South 15.0 mph - N/A   Mostly Cloudy
10:55 PM 37.4 °F 28.9 °F 33.8 °F 87% 29.99 in 10.0 mi South 13.8 mph - N/A   Mostly Cloudy
11:15 PM 37.4 °F 29.3 °F 35.6 °F 93% 29.99 in 10.0 mi South 12.7 mph - N/A   Overcast
11:35 PM 39.2 °F 31.2 °F 35.6 °F 87% 29.99 in 10.0 mi South 13.8 mph - N/A   Overcast
11:55 PM 39.2 °F 31.6 °F 35.6 °F 87% 30.00 in 10.0 mi South 12.7 mph 18.4 mph N/A   Overcast